GW6913 Weather Reports


time (UTC)temp
C
wind
direction
speed
KPH
gust
KPH
rain 1hr
cm
rain 24hr
cm
rain mn
cm
humidity
%
barometer
mb
20260503231504 15 181 19.3 22.5 0.00 0.00 0.00 56 1011.9
20260503231000 15 206 12.9 14.5 0.00 0.00 0.00 56 1011.8
20260503230456 15 205 19.3 22.5 0.00 0.00 0.00 53 1011.5
20260503225954 15 204 16.1 16.1 0.00 0.00 0.00 54 1011.7
20260503225451 15 190 24.1 29.0 0.00 0.00 0.00 53 1011.5
20260503224946 15 215 19.3 22.5 0.00 0.00 0.00 54 1011.9
20260503224443 15 202 22.5 25.7 0.00 0.00 0.00 53 1012.2
20260503223941 15 205 16.1 17.7 0.00 0.00 0.00 54 1012.2
20260503223439 15 212 22.5 24.1 0.00 0.00 0.00 51 1012.3
20260503222934 15 211 19.3 24.1 0.00 0.00 0.00 51 1012.2
20260503222433 15 197 17.7 17.7 0.00 0.00 0.00 49 1012.0
20260503221931 15 191 25.7 32.2 0.00 0.00 0.00 48 1012.1
20260503221429 15 209 24.1 27.4 0.00 0.00 0.00 49 1012.1
20260503220925 15 204 25.7 27.4 0.00 0.00 0.00 49 1012.2
20260503220421 15 197 24.1 27.4 0.00 0.00 0.00 50 1012.4
20260503215919 15 200 20.9 22.5 0.00 0.00 0.00 49 1012.1
20260503215416 15 214 20.9 24.1 0.00 0.00 0.00 50 1012.1
20260503214913 15 202 16.1 16.1 0.00 0.00 0.00 52 1012.0
20260503214411 15 195 19.3 20.9 0.00 0.00 0.00 49 1012.2
20260503213908 15 185 30.6 33.8 0.00 0.00 0.00 50 1012.3
20260503213406 15 204 27.4 35.4 0.00 0.00 0.00 50 1012.1
20260503212902 15 192 24.1 25.7 0.00 0.00 0.00 49 1012.3
20260503212400 16 197 30.6 37.0 0.00 0.00 0.00 48 1012.6
20260503211857 16 186 29.0 33.8 0.00 0.00 0.00 48 1012.8
20260503211354 15 189 20.9 25.7 0.00 0.00 0.00 49 1012.8
20260503210848 16 202 24.1 27.4 0.00 0.00 0.00 50 1013.2
20260503210346 16 221 24.1 32.2 0.00 0.00 0.00 50 1013.0
20260503205841 16 199 25.7 27.4 0.00 0.00 0.00 47 1013.0
20260503205338 16 198 30.6 35.4 0.00 0.00 0.00 47 1013.8
20260503204834 16 209 24.1 27.4 0.00 0.00 0.00 46 1013.5
20260503204332 16 194 27.4 33.8 0.00 0.00 0.00 45 1013.4
20260503203829 16 202 32.2 35.4 0.00 0.00 0.00 45 1013.5
20260503203326 16 201 22.5 27.4 0.00 0.00 0.00 46 1013.7
20260503202823 16 200 27.4 32.2 0.00 0.00 0.00 46 1013.8
20260503202321 16 208 29.0 32.2 0.00 0.00 0.00 44 1014.0
20260503201819 16 193 30.6 35.4 0.00 0.00 0.00 44 1014.1
20260503201316 16 216 33.8 37.0 0.00 0.00 0.00 46 1014.5
20260503200814 16 213 37.0 43.5 0.00 0.00 0.00 44 1014.6
20260503200309 16 202 25.7 29.0 0.00 0.00 0.00 46 1014.6
20260503195807 16 202 24.1 25.7 0.00 0.00 0.00 46 1015.1
20260503195304 16 217 30.6 35.4 0.00 0.00 0.00 44 1015.1
20260503194800 16 206 19.3 22.5 0.00 0.00 0.00 46 1015.5
20260503194256 16 197 24.1 25.7 0.00 0.00 0.00 48 1016.0
20260503193753 16 222 22.5 27.4 0.00 0.00 0.00 46 1015.9
20260503193249 16 221 37.0 38.6 0.00 0.00 0.00 44 1015.9
20260503192745 16 213 35.4 38.6 0.00 0.00 0.00 45 1015.9
20260503192240 16 209 22.5 25.7 0.00 0.00 0.00 48 1016.1
20260503191737 16 196 25.7 32.2 0.00 0.00 0.00 45 1016.1
20260503191234 16 216 33.8 37.0 0.00 0.00 0.00 46 1016.0
20260503190731 16 218 17.7 20.9 0.00 0.00 0.00 47 1016.2
20260503190227 16 200 25.7 33.8 0.00 0.00 0.00 47 1016.2
20260503185725 16 203 37.0 38.6 0.00 0.00 0.00 44 1016.2
20260503185220 16 195 25.7 29.0 0.00 0.00 0.00 45 1016.3
20260503184715 16 193 29.0 32.2 0.00 0.00 0.00 46 1016.1
20260503184211 16 219 24.1 32.2 0.00 0.00 0.00 48 1016.0
20260503183708 16 213 24.1 27.4 0.00 0.00 0.00 45 1016.1
20260503183205 16 169 29.0 33.8 0.00 0.00 0.00 46 1016.4
20260503182704 16 206 32.2 37.0 0.00 0.00 0.00 47 1016.4
20260503182202 16 206 24.1 27.4 0.00 0.00 0.00 50 1016.2
20260503181658 16 202 22.5 25.7 0.00 0.00 0.00 47 1016.4
20260503181155 16 205 29.0 35.4 0.00 0.00 0.00 46 1016.4
20260503180651 16 216 35.4 38.6 0.00 0.00 0.00 46 1016.5
20260503180150 16 215 29.0 35.4 0.00 0.00 0.00 46 1016.7
20260503175647 16 210 25.7 29.0 0.00 0.00 0.00 47 1016.7
20260503175144 16 207 35.4 38.6 0.00 0.00 0.00 46 1016.8
20260503174640 15 205 32.2 37.0 0.00 0.00 0.00 49 1017.2
20260503174137 15 225 30.6 33.8 0.00 0.00 0.00 49 1017.4
20260503173632 15 218 22.5 25.7 0.00 0.00 0.00 48 1017.3
20260503173129 16 209 35.4 41.8 0.00 0.00 0.00 48 1017.4
20260503172626 15 230 20.9 29.0 0.00 0.00 0.00 50 1017.7
20260503172124 15 216 35.4 43.5 0.00 0.00 0.00 50 1017.6
20260503171620 15 206 20.9 25.7 0.00 0.00 0.00 50 1017.7
20260503171117 15 214 29.0 33.8 0.00 0.00 0.00 51 1017.8
20260503170614 15 216 22.5 25.7 0.00 0.00 0.00 51 1017.8
20260503170111 15 201 27.4 29.0 0.00 0.00 0.00 50 1017.4
20260503151006 12 209 20.9 27.4 0.00 0.00 0.00 54 1018.6
20260503150502 12 212 24.1 27.4 0.00 0.00 0.00 56 1018.6
20260503131355 9 208 16.1 17.7 0.00 0.00 0.00 67 1018.4
20260503130853 8 221 24.1 25.7 0.00 0.00 0.00 66 1018.0
20260503130350 8 214 20.9 24.1 0.00 0.00 0.00 66 1018.1
20260503110744 4 200 11.3 12.9 0.00 0.00 0.00 75 1017.3
20260503110241 4 194 12.9 12.9 0.00 0.00 0.00 76 1017.3
20260503100207 4 199 9.7 11.3 0.00 0.00 0.00 75 1017.3
20260503090131 4 205 9.7 11.3 0.00 0.00 0.00 74 1017.6
20260503081602 4 201 8.0 9.7 0.00 0.00 0.00 74 1017.6
20260503081059 4 203 8.0 9.7 0.00 0.00 0.00 74 1017.7
20260503080554 4 202 8.0 9.7 0.00 0.00 0.00 75 1017.7
20260503072528 5 208 6.4 8.0 0.00 0.00 0.00 72 1017.6
20260503072026 5 202 6.4 8.0 0.00 0.00 0.00 72 1017.5
20260503071522 5 197 6.4 8.0 0.00 0.00 0.00 72 1017.8
20260503071019 5 199 8.0 9.7 0.00 0.00 0.00 73 1017.7
20260503070516 5 204 6.4 8.0 0.00 0.00 0.00 73 1017.8
20260503054939 3 177 0.0 0.0 0.00 0.00 0.00 89 1018.3
20260503054436 3 192 1.6 1.6 0.00 0.00 0.00 90 1018.5
20260503053933 3 181 0.0 1.6 0.00 0.00 0.00 92 1018.5
20260503053431 3 176 0.0 1.6 0.00 0.00 0.00 92 1018.6
20260503052927 3 161 0.0 0.0 0.00 0.00 0.00 92 1018.3
20260503052425 3 159 0.0 0.0 0.00 0.00 0.00 92 1018.5
20260503051921 3 159 1.6 1.6 0.00 0.00 0.00 91 1018.5
20260503051417 3 158 1.6 1.6 0.00 0.00 0.00 91 1018.6
20260503050914 3 156 0.0 1.6 0.00 0.00 0.00 91 1018.7
20260503050410 3 156 0.0 0.0 0.00 0.00 0.00 91 1018.5
20260503045908 3 156 0.0 0.0 0.00 0.00 0.00 91 1018.6
20260503045405 3 156 0.0 0.0 0.00 0.00 0.00 91 1018.6
20260503044902 3 156 0.0 0.0 0.00 0.00 0.00 90 1018.6
20260503044359 3 156 0.0 0.0 0.00 0.00 0.00 89 1018.6
20260503043856 3 156 0.0 0.0 0.00 0.00 0.00 89 1018.8
20260503043353 3 156 0.0 0.0 0.00 0.00 0.00 87 1018.6
20260503042849 3 156 0.0 0.0 0.00 0.00 0.00 87 1018.7
20260503042346 3 154 0.0 0.0 0.00 0.00 0.00 87 1018.6
20260503041841 3 163 0.0 0.0 0.00 0.00 0.00 87 1018.7
20260503041339 3 163 0.0 0.0 0.00 0.00 0.00 89 1018.7
20260503040837 3 163 0.0 0.0 0.00 0.00 0.00 89 1018.7
20260503040334 3 163 0.0 0.0 0.00 0.00 0.00 88 1018.7
20260503035831 3 163 0.0 0.0 0.00 0.00 0.00 87 1019.0
20260503035328 4 162 0.0 0.0 0.00 0.00 0.00 87 1018.7
20260503034825 4 163 0.0 0.0 0.00 0.00 0.00 87 1019.0
20260503034323 4 153 0.0 0.0 0.00 0.00 0.00 87 1019.0
20260503033820 4 153 0.0 0.0 0.00 0.00 0.00 85 1018.8
20260503033317 4 153 0.0 0.0 0.00 0.00 0.00 84 1018.7
20260503032815 5 152 0.0 0.0 0.00 0.00 0.00 82 1018.7
20260503032314 4 150 0.0 1.6 0.00 0.00 0.00 81 1019.0
20260503031811 4 154 0.0 0.0 0.00 0.00 0.00 84 1019.0
20260503031309 4 154 0.0 0.0 0.00 0.00 0.00 85 1018.8
20260503030804 4 155 0.0 0.0 0.00 0.00 0.00 85 1019.0
20260503030301 4 155 0.0 0.0 0.00 0.00 0.00 84 1018.8
20260503025758 4 155 0.0 0.0 0.00 0.00 0.00 83 1019.0
20260503025255 5 153 0.0 0.0 0.00 0.00 0.00 82 1019.2
20260503024752 4 152 0.0 0.0 0.00 0.00 0.00 79 1019.2
20260503024249 5 148 0.0 0.0 0.00 0.00 0.00 82 1019.2
20260503023746 5 149 0.0 0.0 0.00 0.00 0.00 81 1018.8
20260503023243 5 157 1.6 3.2 0.00 0.00 0.00 75 1019.1
20260503022739 5 191 1.6 1.6 0.00 0.00 0.00 77 1019.0
20260503022239 5 191 0.0 0.0 0.00 0.00 0.00 75 1019.0
20260503021736 5 191 0.0 0.0 0.00 0.00 0.00 74 1019.1
20260503021232 5 192 0.0 0.0 0.00 0.00 0.00 80 1018.7
20260503020730 5 192 1.6 1.6 0.00 0.00 0.00 81 1018.7
20260503020228 5 191 0.0 0.0 0.00 0.00 0.00 79 1019.0
20260503015724 6 191 0.0 0.0 0.00 0.00 0.00 81 1019.0
20260503015221 6 191 0.0 0.0 0.00 0.00 0.00 81 1018.7
20260503014717 6 191 0.0 0.0 0.00 0.00 0.00 79 1019.0
20260503014215 6 191 0.0 0.0 0.00 0.00 0.00 71 1018.7
20260503013712 6 192 0.0 0.0 0.00 0.00 0.00 68 1018.8
20260503013210 6 193 0.0 1.6 0.00 0.00 0.00 71 1018.7
20260503012707 7 193 1.6 1.6 0.00 0.00 0.00 76 1018.5
20260503012204 7 194 1.6 1.6 0.00 0.00 0.00 74 1018.5
20260503011700 7 188 0.0 0.0 0.00 0.00 0.00 72 1018.6
20260503011157 7 188 0.0 0.0 0.00 0.00 0.00 73 1018.6
20260503010653 8 186 0.0 0.0 0.00 0.00 0.00 70 1018.6
20260503010151 8 185 0.0 0.0 0.00 0.00 0.00 65 1018.5
20260503005648 8 181 0.0 0.0 0.00 0.00 0.00 54 1018.4
20260503005145 8 181 0.0 0.0 0.00 0.00 0.00 53 1018.6
20260503004641 8 181 0.0 0.0 0.00 0.00 0.00 56 1018.5
20260503004140 9 182 0.0 0.0 0.00 0.00 0.00 55 1018.8
20260503003636 10 233 0.0 0.0 0.00 0.00 0.00 52 1018.6
20260503003133 10 307 1.6 1.6 0.00 0.00 0.00 54 1018.6
20260503002630 10 309 3.2 3.2 0.00 0.00 0.00 51 1018.7
20260503002127 10 333 1.6 3.2 0.00 0.00 0.00 52 1018.7
20260503001623 10 353 1.6 3.2 0.00 0.00 0.00 51 1018.7
20260503001120 10 338 3.2 3.2 0.00 0.00 0.00 51 1018.5
20260503000618 10 330 4.8 4.8 0.00 0.00 0.00 47 1018.5
20260503000115 10 305 4.8 4.8 0.00 0.00 0.00 46 1018.6
20260502235611 10 340 6.4 8.0 0.00 0.00 0.00 50 1018.5
20260502235110 10 353 8.0 9.7 0.00 0.00 0.00 48 1018.5
20260502234605 11 336 8.0 9.7 0.00 0.00 0.00 47 1018.8
20260502234103 11 334 9.7 11.3 0.00 0.00 0.00 46 1018.7
20260502233603 11 337 11.3 12.9 0.00 0.00 0.00 45 1018.8
20260502233101 11 349 11.3 14.5 0.00 0.00 0.00 44 1018.7
20260502232556 11 349 12.9 12.9 0.00 0.00 0.00 40 1018.7
20260502232054 11 336 12.9 16.1 0.00 0.00 0.00 43 1018.5